This is the latest recevied weather packets stored in our database for station/object N0QV. If no packets are shown the sender has not sent any weather packets the latest 10 day(s).
| Time | Temp. | Humidity | Pressure | Rain* | Wind** | Luminosity | Snow |
|---|---|---|---|---|---|---|---|
| 1787920293 | 12.78° C | 94% | 1021.2 hPa | 0 mm | - | 34 W/m² | - |
| 1787919992 | 12.78° C | 94% | 1021.3 hPa | 0 mm | - | 29 W/m² | - |
| 1787919690 | 12.22° C | 95% | 1021.3 hPa | 0 mm | - | 29 W/m² | - |
| 1787919385 | 11.67° C | 95% | 1021.2 hPa | 0 mm | - | 27 W/m² | - |
| 1787919081 | 11.67° C | 95% | 1021 hPa | 0 mm | - | 22 W/m² | - |
| 1787918781 | 11.11° C | 95% | 1020.9 hPa | 0 mm | - | 18 W/m² | - |
| 1787918476 | 11.11° C | 94% | 1021 hPa | 0 mm | - | 15 W/m² | - |
| 1787918175 | 11.11° C | 94% | 1020.8 hPa | 0 mm | - | 12 W/m² | - |
| 1787917875 | 11.67° C | 95% | 1020.9 hPa | 0 mm | - | 9 W/m² | - |
| 1787917571 | 11.67° C | 95% | 1020.7 hPa | 0 mm | - | 6 W/m² | - |
| 1787917267 | 11.11° C | 95% | 1021 hPa | 0 mm | - | 3 W/m² | - |
| 1787916966 | 11.11° C | 94% | 1020.6 hPa | 0 mm | - | 2 W/m² | - |
| 1787916662 | 11.67° C | 95% | 1021 hPa | 0 mm | - | 0 W/m² | - |
| 1787916355 | 11.67° C | 95% | 1020.8 hPa | 0 mm | - | 0 W/m² | - |
| 1787916051 | 11.11° C | 95% | 1020.7 hPa | 0 mm | - | 0 W/m² | - |
| 1787915751 | 10.56° C | 94% | 1020.7 hPa | 0 mm | - | 0 W/m² | - |
| 1787915446 | 10.56° C | 94% | 1020.5 hPa | 0 mm | - | 0 W/m² | - |
| 1787915145 | 11.11° C | 94% | 1020.6 hPa | 0 mm | - | 0 W/m² | - |
| 1787914840 | 11.11° C | 94% | 1020.5 hPa | 0 mm | - | 0 W/m² | - |
| 1787914538 | 11.11° C | 94% | 1020.6 hPa | 0 mm | - | 0 W/m² | - |
| 1787914234 | 11.11° C | 94% | 1020.4 hPa | 0 mm | - | 0 W/m² | - |
| 1787913934 | 11.67° C | 94% | 1020.5 hPa | 0 mm | - | 0 W/m² | - |
| 1787913633 | 11.67° C | 94% | 1020.1 hPa | 0 mm | - | 0 W/m² | - |
| 1787913333 | 11.11° C | 94% | 1020.1 hPa | 0 mm | - | 0 W/m² | - |
| 1787913028 | 11.67° C | 94% | 1020.3 hPa | 0 mm | - | 0 W/m² | - |
* Rain latest hour (hover to see other rain measurements)
** Current wind speed in m/s (hover to see current wind gust speed)